Tracking 18852 objects as of 23-Nov-2017
HD Live streaming from Space Station
objects crossing your sky now

METEOR 1-22

Track METEOR 1-22 now!
10-day predictions
METEOR 1-22 is classified as:


NORAD ID: 8293
Int'l Code: 1975-087A
Perigee: 805.0 km
Apogee: 912.7 km
Inclination: 81.3 °
Period: 102.0 minutes
Semi major axis: 7229 km
RCS: 4.5926 m2 (large)
Launch date: September 18, 1975
Source: Commonwealth of Independent States (former USSR) (CIS)
Launch site: PLESETSK MISSILE AND SPACE COMPLEX (PKMTR)
aabbcc
Your satellite tracking list
Your tracking list is empty




NASA's NSSDC Master Catalog

Two Line Element Set (TLE):
1  8293U 75087A   17326.92204993 +.00000051 +00000-0 +20526-4 0  9991
2  8293 081.2534 158.5861 0074505 219.0319 140.5463 14.12243372171468
Source of the keplerian elements: AFSPC